ICE233 BIKF-KDFW

Flight info

Callsign ICE233
Flight time N/A
Altitude 34000
Route RALOV1D RALOV DCT ROTIN DCT 6435N DCT 6440N/M079F360 DCT 6450N DCT KETLA/N0455F360 DCT JELCO DCT 5577N DCT 5083N/N0455F380 DCT MNM DCT MZV DCT SGF DCT RRNET SEEVR4
Aircraft B38M/M-SDE1FGHILORVWXY/HB1

Departure

Time N/A
Airport Keflavik International Airport (BIKF)

Arrival

Time 2026-05-03 22:42
Airport Dallas Fort Worth International Airport (KDFW)
Time Latitude Longitude Altitude Speed Heading
2026-05-03 20:15 47.84252 -85.20961 33708 ft 460 kts 219°
2026-05-03 20:15 47.78894 -85.26160 33715 ft 460 kts 219°
2026-05-03 20:16 47.73563 -85.31320 33708 ft 460 kts 219°
2026-05-03 20:16 47.68213 -85.36485 33695 ft 460 kts 219°
2026-05-03 20:17 47.62830 -85.41668 33707 ft 461 kts 219°
2026-05-03 20:17 47.57444 -85.46842 33711 ft 461 kts 218°
2026-05-03 20:18 47.52097 -85.51967 33704 ft 461 kts 218°
2026-05-03 20:18 47.46719 -85.57108 33699 ft 461 kts 218°
2026-05-03 20:19 47.41334 -85.62242 33700 ft 461 kts 218°
2026-05-03 20:19 47.35939 -85.67374 33693 ft 461 kts 218°
2026-05-03 20:20 47.30582 -85.72457 33653 ft 461 kts 218°
2026-05-03 20:20 47.25193 -85.77558 33687 ft 462 kts 218°
2026-05-03 20:21 47.19786 -85.82664 33683 ft 462 kts 218°
2026-05-03 20:21 47.14380 -85.87756 33672 ft 462 kts 218°
2026-05-03 20:22 47.09004 -85.92807 33645 ft 463 kts 218°
2026-05-03 20:22 47.03576 -85.97895 33667 ft 463 kts 218°
2026-05-03 20:23 46.98150 -86.02968 33672 ft 463 kts 218°
2026-05-03 20:23 46.92712 -86.08040 33664 ft 463 kts 218°
2026-05-03 20:24 46.87328 -86.13049 33659 ft 463 kts 218°
2026-05-03 20:24 46.81888 -86.18099 33669 ft 463 kts 218°
2026-05-03 20:25 46.76451 -86.23133 33661 ft 463 kts 218°
2026-05-03 20:25 46.71040 -86.28132 33670 ft 463 kts 218°
2026-05-03 20:26 46.65609 -86.33137 33673 ft 463 kts 218°
2026-05-03 20:26 46.60157 -86.38149 33665 ft 464 kts 218°
2026-05-03 20:27 46.54684 -86.43167 33669 ft 466 kts 218°
2026-05-03 20:27 46.49202 -86.48183 33667 ft 467 kts 218°
2026-05-03 20:28 46.43743 -86.53164 33678 ft 468 kts 218°
2026-05-03 20:28 46.38235 -86.58179 33668 ft 468 kts 218°
2026-05-03 20:29 46.32726 -86.63183 33664 ft 468 kts 218°
2026-05-03 20:29 46.27210 -86.68181 33660 ft 468 kts 218°
2026-05-03 20:30 46.21738 -86.73127 33663 ft 468 kts 218°
2026-05-03 20:30 46.16215 -86.78107 33668 ft 468 kts 218°
2026-05-03 20:31 46.10687 -86.83080 33644 ft 469 kts 218°
2026-05-03 20:31 46.05135 -86.88062 33671 ft 470 kts 218°
2026-05-03 20:32 45.99631 -86.92990 33668 ft 470 kts 218°
2026-05-03 20:32 45.94074 -86.97953 33673 ft 470 kts 218°
2026-05-03 20:33 45.88514 -87.02907 33671 ft 470 kts 217°
2026-05-03 20:33 45.82954 -87.07849 33664 ft 470 kts 217°
2026-05-03 20:34 45.77444 -87.12735 33663 ft 470 kts 217°
2026-05-03 20:34 45.71877 -87.17660 33654 ft 469 kts 217°
2026-05-03 20:35 45.66329 -87.22558 33695 ft 469 kts 217°
2026-05-03 20:35 45.60784 -87.27442 33671 ft 469 kts 217°
2026-05-03 20:36 45.55250 -87.32306 33696 ft 471 kts 217°
2026-05-03 20:36 45.49672 -87.37197 33694 ft 470 kts 217°
2026-05-03 20:37 45.44102 -87.42070 33690 ft 470 kts 217°
2026-05-03 20:37 45.38542 -87.46923 33685 ft 470 kts 217°
2026-05-03 20:38 45.33002 -87.51747 33681 ft 469 kts 217°
2026-05-03 20:38 45.27455 -87.56567 33678 ft 467 kts 217°
2026-05-03 20:39 45.21902 -87.61380 33679 ft 468 kts 217°
2026-05-03 20:39 45.16330 -87.66107 33654 ft 468 kts 216°
2026-05-03 20:40 45.10762 -87.70727 33650 ft 466 kts 216°
2026-05-03 20:40 45.05165 -87.75380 33678 ft 467 kts 216°
2026-05-03 20:41 44.99563 -87.80028 33686 ft 467 kts 216°
2026-05-03 20:41 44.93980 -87.84651 33681 ft 464 kts 216°
2026-05-03 20:42 44.88411 -87.89250 33682 ft 464 kts 216°
2026-05-03 20:42 44.82881 -87.93809 33681 ft 464 kts 216°
2026-05-03 20:43 44.77306 -87.98392 33686 ft 464 kts 216°
2026-05-03 20:43 44.71746 -88.02954 33693 ft 464 kts 216°
2026-05-03 20:44 44.66167 -88.07521 33705 ft 464 kts 216°
2026-05-03 20:44 44.60615 -88.12056 33705 ft 467 kts 215°
2026-05-03 20:45 44.55010 -88.16624 33723 ft 464 kts 216°
2026-05-03 20:45 44.49436 -88.21156 33721 ft 464 kts 216°
2026-05-03 20:46 44.43850 -88.25688 33720 ft 464 kts 216°
2026-05-03 20:46 44.38303 -88.30178 33714 ft 463 kts 216°
2026-05-03 20:47 44.32734 -88.34675 33716 ft 462 kts 216°
2026-05-03 20:47 44.27179 -88.39152 33739 ft 462 kts 216°
2026-05-03 20:48 44.21614 -88.43628 33741 ft 462 kts 216°
2026-05-03 20:48 44.16093 -88.48057 33717 ft 460 kts 216°
2026-05-03 20:49 44.10535 -88.52507 33746 ft 461 kts 216°
2026-05-03 20:49 44.04982 -88.56943 33748 ft 461 kts 216°
2026-05-03 20:50 43.99416 -88.61380 33742 ft 460 kts 216°
2026-05-03 20:50 43.93898 -88.65769 33747 ft 460 kts 216°
2026-05-03 20:51 43.88351 -88.70171 33744 ft 460 kts 216°
2026-05-03 20:51 43.82795 -88.74571 33753 ft 460 kts 216°
2026-05-03 20:52 43.77235 -88.78965 33753 ft 460 kts 216°
2026-05-03 20:52 43.71675 -88.83349 33754 ft 460 kts 216°
2026-05-03 20:53 43.66165 -88.87685 33755 ft 460 kts 216°
2026-05-03 20:53 43.60592 -88.92061 33752 ft 461 kts 216°
2026-05-03 20:54 43.55003 -88.96440 33753 ft 462 kts 216°
2026-05-03 20:54 43.46656 -89.02961 33762 ft 462 kts 216°
2026-05-03 20:55 43.41074 -89.07312 33751 ft 462 kts 216°
2026-05-03 20:55 43.35458 -89.11678 33769 ft 464 kts 216°
2026-05-03 20:56 43.29843 -89.16035 33780 ft 464 kts 216°
2026-05-03 20:56 43.24218 -89.20390 33782 ft 464 kts 216°
2026-05-03 20:57 43.18648 -89.24694 33760 ft 464 kts 216°
2026-05-03 20:57 43.13023 -89.29031 33756 ft 464 kts 216°
2026-05-03 20:58 43.07393 -89.33362 33757 ft 464 kts 216°
2026-05-03 20:58 43.01764 -89.37683 33754 ft 464 kts 216°
2026-05-03 20:59 42.96180 -89.41961 33766 ft 464 kts 216°
2026-05-03 20:59 42.90543 -89.46271 33768 ft 465 kts 216°
2026-05-03 21:00 42.85851 -89.49851 33784 ft 465 kts 216°
2026-05-03 21:00 42.79263 -89.54867 33784 ft 465 kts 216°
2026-05-03 21:01 42.73654 -89.59128 33786 ft 465 kts 216°
2026-05-03 21:01 42.68009 -89.63407 33785 ft 465 kts 216°
2026-05-03 21:02 42.62361 -89.67680 33786 ft 465 kts 216°
2026-05-03 21:02 42.56721 -89.71937 33777 ft 465 kts 216°
2026-05-03 21:03 42.51061 -89.76201 33791 ft 465 kts 216°
2026-05-03 21:03 42.45441 -89.80426 33788 ft 465 kts 216°
2026-05-03 21:04 42.39778 -89.84674 33775 ft 465 kts 216°
2026-05-03 21:04 42.34129 -89.88903 33804 ft 465 kts 216°
2026-05-03 21:05 42.28469 -89.93132 33806 ft 465 kts 216°
2026-05-03 21:05 42.22840 -89.97328 33803 ft 465 kts 216°
2026-05-03 21:06 42.17182 -90.01539 33778 ft 463 kts 216°
2026-05-03 21:06 42.11558 -90.05714 33788 ft 462 kts 216°
2026-05-03 21:07 42.05927 -90.09886 33795 ft 462 kts 216°
2026-05-03 21:07 42.00330 -90.14025 33794 ft 462 kts 216°
2026-05-03 21:08 41.94715 -90.18168 33802 ft 458 kts 217°
2026-05-03 21:08 41.89148 -90.22268 33796 ft 457 kts 217°
2026-05-03 21:09 41.83576 -90.26364 33794 ft 457 kts 217°
2026-05-03 21:09 41.78035 -90.30428 33793 ft 457 kts 217°
2026-05-03 21:10 41.72488 -90.34489 33799 ft 451 kts 218°
2026-05-03 21:10 41.67003 -90.38498 33794 ft 451 kts 218°
2026-05-03 21:11 41.61509 -90.42505 33808 ft 449 kts 218°
2026-05-03 21:11 41.56017 -90.46505 33794 ft 449 kts 218°
2026-05-03 21:12 41.50575 -90.50459 33814 ft 448 kts 219°
2026-05-03 21:12 41.45109 -90.54424 33813 ft 448 kts 219°
2026-05-03 21:13 41.39636 -90.58386 33813 ft 448 kts 219°
2026-05-03 21:13 41.34151 -90.62349 33780 ft 448 kts 219°
2026-05-03 21:14 41.28718 -90.66278 33830 ft 448 kts 220°
2026-05-03 21:14 41.23258 -90.70232 33823 ft 448 kts 220°
2026-05-03 21:15 41.17785 -90.74189 33829 ft 448 kts 220°
2026-05-03 21:15 41.12308 -90.78142 33794 ft 449 kts 219°
2026-05-03 21:16 41.06849 -90.82074 33852 ft 450 kts 219°
2026-05-03 21:16 41.01367 -90.86015 33850 ft 449 kts 219°
2026-05-03 21:17 40.96799 -90.89293 33855 ft 449 kts 219°
2026-05-03 21:17 40.90377 -90.93893 33841 ft 449 kts 219°
2026-05-03 21:18 40.84904 -90.97806 33877 ft 451 kts 219°
2026-05-03 21:18 40.79395 -91.01736 33875 ft 451 kts 219°
2026-05-03 21:19 40.73880 -91.05663 33854 ft 451 kts 219°
2026-05-03 21:19 40.68356 -91.09590 33862 ft 451 kts 219°
2026-05-03 21:20 40.62836 -91.13506 33864 ft 451 kts 219°
2026-05-03 21:20 40.57360 -91.17383 33865 ft 452 kts 219°
2026-05-03 21:21 40.51819 -91.21299 33868 ft 452 kts 219°
2026-05-03 21:21 40.46288 -91.25201 33846 ft 452 kts 219°
2026-05-03 21:22 40.40734 -91.29111 33878 ft 453 kts 219°
2026-05-03 21:22 40.35225 -91.32983 33878 ft 453 kts 219°
2026-05-03 21:23 40.29663 -91.36883 33876 ft 453 kts 219°
2026-05-03 21:23 40.24102 -91.40777 33849 ft 453 kts 219°
2026-05-03 21:24 40.18529 -91.44672 33881 ft 455 kts 219°
2026-05-03 21:24 40.12958 -91.48557 33883 ft 455 kts 219°
2026-05-03 21:25 40.07412 -91.52419 33889 ft 455 kts 219°
2026-05-03 21:25 40.01818 -91.56306 33857 ft 456 kts 219°
2026-05-03 21:26 39.96211 -91.60195 33892 ft 457 kts 219°
2026-05-03 21:26 39.90605 -91.64075 33887 ft 457 kts 218°
2026-05-03 21:27 39.85025 -91.67931 33897 ft 457 kts 218°
2026-05-03 21:27 39.79404 -91.71809 33892 ft 457 kts 218°
2026-05-03 21:28 39.73778 -91.75681 33897 ft 458 kts 218°
2026-05-03 21:28 39.68156 -91.79545 33892 ft 458 kts 218°
2026-05-03 21:29 39.62522 -91.83409 33898 ft 458 kts 218°
2026-05-03 21:29 39.56921 -91.87244 33897 ft 458 kts 218°
2026-05-03 21:30 39.51284 -91.91095 33871 ft 458 kts 218°
2026-05-03 21:30 39.45650 -91.94938 33900 ft 459 kts 218°
2026-05-03 21:31 39.40000 -91.98785 33902 ft 459 kts 218°
2026-05-03 21:31 39.34386 -92.02600 33899 ft 459 kts 218°
2026-05-03 21:32 39.28725 -92.06440 33899 ft 460 kts 218°
2026-05-03 21:32 39.23064 -92.10273 33898 ft 460 kts 218°
2026-05-03 21:33 39.17394 -92.14105 33905 ft 460 kts 218°
2026-05-03 21:33 39.11752 -92.17912 33904 ft 460 kts 218°
2026-05-03 21:34 39.06071 -92.21737 33896 ft 462 kts 217°
2026-05-03 21:34 39.00383 -92.25560 33906 ft 462 kts 217°
2026-05-03 21:35 38.94683 -92.29384 33896 ft 462 kts 217°
2026-05-03 21:35 38.88979 -92.33205 33903 ft 463 kts 217°
2026-05-03 21:36 38.83322 -92.36986 33892 ft 463 kts 217°
2026-05-03 21:36 38.77603 -92.40802 33900 ft 463 kts 217°
2026-05-03 21:37 38.71884 -92.44611 33896 ft 463 kts 217°
2026-05-03 21:37 38.66160 -92.48417 33890 ft 463 kts 217°
2026-05-03 21:38 38.60491 -92.52178 33876 ft 463 kts 217°
2026-05-03 21:38 38.54769 -92.55969 33891 ft 463 kts 217°
2026-05-03 21:39 38.49049 -92.59752 33906 ft 463 kts 217°
2026-05-03 21:39 38.43323 -92.63532 33918 ft 463 kts 217°
2026-05-03 21:40 38.37641 -92.67275 33892 ft 463 kts 216°
2026-05-03 21:40 38.31917 -92.71040 33914 ft 463 kts 216°
2026-05-03 21:41 38.26194 -92.74797 33919 ft 463 kts 216°
2026-05-03 21:41 38.20471 -92.78547 33927 ft 463 kts 216°
2026-05-03 21:42 38.14793 -92.82263 33907 ft 463 kts 216°
2026-05-03 21:42 38.09073 -92.85998 33934 ft 462 kts 216°
2026-05-03 21:43 38.03347 -92.89731 33936 ft 462 kts 216°
2026-05-03 21:43 37.97628 -92.93452 33938 ft 462 kts 216°
2026-05-03 21:44 37.91909 -92.97167 33941 ft 462 kts 216°
2026-05-03 21:44 37.86221 -93.00856 33944 ft 463 kts 216°
2026-05-03 21:45 37.80487 -93.04568 33947 ft 463 kts 216°
2026-05-03 21:45 37.74755 -93.08271 33954 ft 462 kts 216°
2026-05-03 21:46 37.69045 -93.11956 33955 ft 462 kts 216°
2026-05-03 21:46 37.63317 -93.15646 33956 ft 463 kts 215°
2026-05-03 21:47 37.57612 -93.19315 33971 ft 463 kts 215°
2026-05-03 21:47 37.51869 -93.23002 33957 ft 463 kts 215°
2026-05-03 21:48 37.46143 -93.26671 33971 ft 463 kts 215°
2026-05-03 21:48 37.40393 -93.30350 33958 ft 463 kts 215°
2026-05-03 21:49 37.34677 -93.33987 33970 ft 464 kts 214°
2026-05-03 21:49 37.28917 -93.37626 33974 ft 464 kts 214°
2026-05-03 21:50 37.23165 -93.41261 33993 ft 464 kts 214°
2026-05-03 21:50 37.17399 -93.44898 33961 ft 464 kts 214°
2026-05-03 21:51 37.11624 -93.48535 33992 ft 465 kts 214°
2026-05-03 21:51 37.05887 -93.52141 33988 ft 464 kts 214°
2026-05-03 21:52 37.00120 -93.55761 33989 ft 465 kts 214°
2026-05-03 21:52 36.94341 -93.59382 33998 ft 465 kts 214°
2026-05-03 21:53 36.88560 -93.62997 33998 ft 465 kts 214°
2026-05-03 21:53 36.82818 -93.66583 34003 ft 465 kts 214°
2026-05-03 21:54 36.77034 -93.70188 33996 ft 465 kts 214°
2026-05-03 21:54 36.71234 -93.73797 33998 ft 465 kts 214°
2026-05-03 21:55 36.65441 -93.77397 34006 ft 466 kts 213°
2026-05-03 21:55 36.59641 -93.80992 34001 ft 466 kts 213°
2026-05-03 21:56 36.53887 -93.84555 34021 ft 465 kts 213°
2026-05-03 21:56 36.48099 -93.88133 34031 ft 464 kts 213°
2026-05-03 21:57 36.42306 -93.91708 34016 ft 465 kts 213°
2026-05-03 21:57 36.36521 -93.95272 34042 ft 465 kts 213°
2026-05-03 21:58 36.30760 -93.98814 34046 ft 465 kts 213°
2026-05-03 21:58 36.24960 -94.02375 34050 ft 465 kts 213°
2026-05-03 21:59 36.19160 -94.05931 34057 ft 465 kts 213°
2026-05-03 21:59 36.13373 -94.09472 34053 ft 465 kts 213°
2026-05-03 22:00 36.07607 -94.12995 34041 ft 465 kts 213°
2026-05-03 22:00 36.01802 -94.16536 34050 ft 465 kts 213°
2026-05-03 22:01 35.95993 -94.20072 34030 ft 465 kts 213°
2026-05-03 22:01 35.90203 -94.23593 34019 ft 465 kts 213°
2026-05-03 22:02 35.84400 -94.27114 34023 ft 465 kts 213°
2026-05-03 22:02 35.78634 -94.30608 34025 ft 465 kts 213°
2026-05-03 22:03 35.72831 -94.34119 34027 ft 465 kts 213°
2026-05-03 22:03 35.67041 -94.37616 34013 ft 465 kts 213°
2026-05-03 22:04 35.61222 -94.41124 34020 ft 466 kts 213°
2026-05-03 22:04 35.55440 -94.44604 34008 ft 466 kts 213°
2026-05-03 22:05 35.49616 -94.48105 34003 ft 466 kts 213°
2026-05-03 22:05 35.43804 -94.51592 34019 ft 466 kts 213°
2026-05-03 22:06 35.37975 -94.55085 34007 ft 467 kts 213°
2026-05-03 22:06 35.32146 -94.58572 34002 ft 466 kts 213°
2026-05-03 22:07 35.26351 -94.62031 34010 ft 466 kts 213°
2026-05-03 22:07 35.20528 -94.65503 34018 ft 466 kts 213°
2026-05-03 22:08 35.14696 -94.68974 34006 ft 466 kts 213°
2026-05-03 22:08 35.08856 -94.72445 34030 ft 467 kts 213°
2026-05-03 22:09 35.03029 -94.75903 34025 ft 467 kts 213°
2026-05-03 22:10 34.94297 -94.81075 34030 ft 467 kts 213°
2026-05-03 22:10 34.88455 -94.84529 34017 ft 467 kts 213°
2026-05-03 22:11 34.82637 -94.88028 34026 ft 462 kts 218°
2026-05-03 22:11 34.80157 -94.90368 34057 ft 450 kts 228°
2026-05-03 22:11 34.77739 -94.92839 34002 ft 454 kts 226°
2026-05-03 22:12 34.72928 -94.97710 34037 ft 454 kts 227°
2026-05-03 22:12 34.68096 -95.02635 34036 ft 453 kts 227°
2026-05-03 22:13 34.63265 -95.07555 34043 ft 453 kts 227°
2026-05-03 22:13 34.58438 -95.12465 34040 ft 454 kts 227°
2026-05-03 22:14 34.53631 -95.17345 34037 ft 454 kts 227°
2026-05-03 22:14 34.48788 -95.22256 34046 ft 454 kts 227°
2026-05-03 22:15 34.43935 -95.27156 34044 ft 454 kts 227°
2026-05-03 22:15 34.39093 -95.32036 34050 ft 454 kts 227°
2026-05-03 22:16 34.34267 -95.36893 34027 ft 453 kts 227°
2026-05-03 22:16 34.29417 -95.41766 34054 ft 453 kts 227°
2026-05-03 22:17 34.24566 -95.46633 34056 ft 453 kts 227°
2026-05-03 22:17 34.19722 -95.51482 34053 ft 453 kts 227°
2026-05-03 22:18 34.14865 -95.56333 34050 ft 453 kts 227°
2026-05-03 22:18 34.10036 -95.61149 34054 ft 453 kts 227°
2026-05-03 22:19 34.05168 -95.65989 34070 ft 454 kts 227°
2026-05-03 22:19 34.00302 -95.70820 34071 ft 454 kts 227°
2026-05-03 22:20 33.95440 -95.75656 33944 ft 453 kts 227°
2026-05-03 22:20 33.93022 -95.78076 33396 ft 451 kts 227°
2026-05-03 22:20 33.90637 -95.80461 32781 ft 452 kts 227°
2026-05-03 22:20 33.88212 -95.82883 32145 ft 454 kts 227°
2026-05-03 22:21 33.85773 -95.85317 31533 ft 456 kts 226°
2026-05-03 22:21 33.83366 -95.87711 30893 ft 445 kts 226°
2026-05-03 22:21 33.80989 -95.90059 29852 ft 440 kts 226°
2026-05-03 22:21 33.78637 -95.92382 28742 ft 435 kts 226°
2026-05-03 22:22 33.76304 -95.94686 27144 ft 439 kts 225°
2026-05-03 22:22 33.73913 -95.97049 25385 ft 450 kts 224°
2026-05-03 22:22 33.71472 -95.99454 23766 ft 456 kts 223°
2026-05-03 22:22 33.69039 -96.01849 21961 ft 460 kts 223°
2026-05-03 22:23 33.66567 -96.04281 20290 ft 460 kts 222°
2026-05-03 22:23 33.64124 -96.06684 18952 ft 452 kts 222°
2026-05-03 22:23 33.61734 -96.09033 18525 ft 421 kts 222°
2026-05-03 22:23 33.59549 -96.11177 18173 ft 399 kts 222°
2026-05-03 22:24 33.57497 -96.13191 18325 ft 371 kts 222°
2026-05-03 22:24 33.55475 -96.15176 17676 ft 374 kts 222°
2026-05-03 22:24 33.53469 -96.17144 17191 ft 372 kts 221°
2026-05-03 22:24 33.51482 -96.19091 16740 ft 368 kts 221°
2026-05-03 22:25 33.49516 -96.21016 16551 ft 359 kts 222°
2026-05-03 22:25 33.47633 -96.22858 16326 ft 350 kts 221°
2026-05-03 22:25 33.45782 -96.24668 16145 ft 341 kts 221°
2026-05-03 22:25 33.44037 -96.26567 15602 ft 340 kts 232°
2026-05-03 22:26 33.42542 -96.28766 15158 ft 340 kts 231°
2026-05-03 22:26 33.41003 -96.30919 14665 ft 341 kts 230°
2026-05-03 22:26 33.39443 -96.33067 14172 ft 343 kts 230°
2026-05-03 22:26 33.37863 -96.35222 13606 ft 346 kts 229°
2026-05-03 22:27 33.36264 -96.37389 13027 ft 348 kts 229°
2026-05-03 22:27 33.34658 -96.39559 12470 ft 349 kts 229°
2026-05-03 22:27 33.33084 -96.41721 11952 ft 349 kts 233°
2026-05-03 22:27 33.32030 -96.44296 11503 ft 345 kts 253°
2026-05-03 22:28 33.31318 -96.47000 11185 ft 338 kts 251°
2026-05-03 22:28 33.30590 -96.49637 10853 ft 333 kts 251°
2026-05-03 22:28 33.29861 -96.52248 10496 ft 329 kts 251°
2026-05-03 22:28 33.29140 -96.54820 10131 ft 325 kts 251°
2026-05-03 22:29 33.28615 -96.57425 9693 ft 323 kts 265°
2026-05-03 22:29 33.28527 -96.60090 9316 ft 320 kts 265°
2026-05-03 22:29 33.28419 -96.62698 8950 ft 316 kts 265°
2026-05-03 22:29 33.28304 -96.65307 8598 ft 312 kts 265°
2026-05-03 22:30 33.28187 -96.67885 8253 ft 308 kts 265°
2026-05-03 22:30 33.28070 -96.70428 7907 ft 305 kts 265°
2026-05-03 22:30 33.27953 -96.72943 7574 ft 302 kts 265°
2026-05-03 22:30 33.27876 -96.74595 7369 ft 299 kts 264°
2026-05-03 22:31 33.27722 -96.77880 6931 ft 296 kts 264°
2026-05-03 22:31 33.27646 -96.79472 6714 ft 294 kts 264°
2026-05-03 22:31 33.27531 -96.81903 6373 ft 292 kts 264°
2026-05-03 22:31 33.27393 -96.85084 5988 ft 286 kts 264°
2026-05-03 22:32 33.27271 -96.87419 5836 ft 277 kts 263°
2026-05-03 22:32 33.27173 -96.88951 5726 ft 271 kts 263°
2026-05-03 22:32 33.27001 -96.91893 5401 ft 265 kts 262°
2026-05-03 22:32 33.26918 -96.93333 5251 ft 261 kts 262°
2026-05-03 22:33 33.26767 -96.95465 4997 ft 250 kts 257°
2026-05-03 22:33 33.26264 -96.97378 4744 ft 235 kts 240°
2026-05-03 22:33 33.25344 -96.98952 4517 ft 230 kts 226°
2026-05-03 22:33 33.24216 -97.00307 4332 ft 231 kts 223°
2026-05-03 22:34 33.23090 -97.01597 4179 ft 216 kts 222°
2026-05-03 22:34 33.22047 -97.02782 4024 ft 200 kts 222°
2026-05-03 22:34 33.21038 -97.03871 3997 ft 197 kts 217°
2026-05-03 22:34 33.19901 -97.04785 3973 ft 198 kts 210°
2026-05-03 22:35 33.18588 -97.05277 3756 ft 199 kts 189°
2026-05-03 22:35 33.17206 -97.05354 3438 ft 200 kts 182°
2026-05-03 22:35 33.15815 -97.05348 3145 ft 199 kts 181°
2026-05-03 22:35 33.14444 -97.05349 2976 ft 197 kts 182°
2026-05-03 22:36 33.12639 -97.05355 2986 ft 197 kts 183°
2026-05-03 22:36 33.11714 -97.05361 2987 ft 195 kts 182°
2026-05-03 22:36 33.10395 -97.05367 2964 ft 179 kts 184°
2026-05-03 22:36 33.09278 -97.05368 3005 ft 153 kts 185°
2026-05-03 22:37 33.08262 -97.05376 3085 ft 143 kts 183°
2026-05-03 22:37 33.07267 -97.05380 3032 ft 143 kts 185°
2026-05-03 22:37 33.06276 -97.05387 3017 ft 141 kts 184°
2026-05-03 22:37 33.05286 -97.05393 2985 ft 144 kts 184°
2026-05-03 22:38 33.04286 -97.05399 2962 ft 143 kts 184°
2026-05-03 22:38 33.03307 -97.05409 2801 ft 140 kts 184°
2026-05-03 22:38 33.02327 -97.05409 2633 ft 142 kts 184°
2026-05-03 22:38 33.01351 -97.05413 2485 ft 141 kts 185°
2026-05-03 22:39 33.00384 -97.05421 2309 ft 138 kts 183°
2026-05-03 22:39 32.99425 -97.05425 2129 ft 138 kts 184°
2026-05-03 22:39 32.98465 -97.05429 1979 ft 138 kts 184°
2026-05-03 22:39 32.97498 -97.05434 1803 ft 140 kts 183°
2026-05-03 22:40 32.96531 -97.05438 1621 ft 139 kts 185°
2026-05-03 22:40 32.96023 -97.05443 1503 ft 140 kts 182°
2026-05-03 22:40 32.95047 -97.05449 1344 ft 141 kts 180°
2026-05-03 22:40 32.94062 -97.05452 1141 ft 138 kts 179°
2026-05-03 22:41 32.93111 -97.05464 948 ft 141 kts 173°
2026-05-03 22:41 32.92099 -97.05468 775 ft 144 kts 176°
2026-05-03 22:41 32.91170 -97.05468 627 ft 125 kts 178°
2026-05-03 22:41 32.90454 -97.05470 606 ft 79 kts 179°
2026-05-03 22:42 32.89983 -97.05427 620 ft 48 kts 149°
2026-05-03 22:42 32.89781 -97.05272 614 ft 29 kts 124°
2026-05-03 22:42 32.89760 -97.05035 610 ft 29 kts 96°
2026-05-03 22:42 32.89712 -97.04888 603 ft 17 kts 174°
2026-05-03 22:43 32.89585 -97.04888 601 ft 20 kts 180°
2026-05-03 22:43 32.89454 -97.04889 601 ft 22 kts 180°
2026-05-03 22:43 32.89401 -97.04818 598 ft 14 kts 88°
2026-05-03 22:43 32.89400 -97.04685 599 ft 19 kts 93°
2026-05-03 22:44 32.89427 -97.04546 600 ft 13 kts 90°
2026-05-03 22:44 32.89426 -97.04429 600 ft 16 kts 91°
2026-05-03 22:44 32.89433 -97.04336 600 ft 11 kts 67°
2026-05-03 22:44 32.89470 -97.04272 600 ft 8 kts 33°
2026-05-03 22:45 32.89504 -97.04254 600 ft 0 kts 22°